EWG8ZH EDDL-EIDW

Flight info

Callsign EWG8ZH
Flight time 1h 29m
Altitude 38000
Route SONEB6Z SONEB P64 TENLI L980 FLEVO L602 SPY DCT RAVLO Y70 OTBED L60 PENIL UL28 LELDO M145 BAGSO BAGSO4L
Aircraft A319/M-SDE3FGHIRWY/LB1

Departure

Time 2026-05-06 12:14
Airport Düsseldorf Airport (EDDL)

Arrival

Time 2026-05-06 13:43
Airport Dublin Airport (EIDW)
Time Latitude Longitude Altitude Speed Heading
2026-05-06 12:01 51.28155 6.76735 128 ft 0 kts 276°
2026-05-06 12:04 51.28154 6.76751 129 ft 4 kts 278°
2026-05-06 12:04 51.28148 6.76788 129 ft 3 kts 291°
2026-05-06 12:05 51.28134 6.76815 129 ft 4 kts 350°
2026-05-06 12:05 51.28109 6.76813 130 ft 4 kts 15°
2026-05-06 12:05 51.28093 6.76806 129 ft 0 kts 17°
2026-05-06 12:08 51.28094 6.76806 129 ft 1 kts 17°
2026-05-06 12:08 51.28113 6.76816 130 ft 5 kts 17°
2026-05-06 12:09 51.28162 6.76835 129 ft 10 kts
2026-05-06 12:09 51.28247 6.76850 129 ft 15 kts
2026-05-06 12:09 51.28313 6.76803 128 ft 13 kts 318°
2026-05-06 12:09 51.28397 6.76692 125 ft 12 kts 322°
2026-05-06 12:10 51.28414 6.76621 126 ft 9 kts 254°
2026-05-06 12:10 51.28361 6.76509 126 ft 19 kts 233°
2026-05-06 12:10 51.28261 6.76295 127 ft 26 kts 232°
2026-05-06 12:10 51.28143 6.76048 129 ft 29 kts 232°
2026-05-06 12:11 51.28032 6.75818 129 ft 27 kts 232°
2026-05-06 12:11 51.27912 6.75564 128 ft 30 kts 233°
2026-05-06 12:11 51.27854 6.75446 127 ft 10 kts 231°
2026-05-06 12:11 51.27837 6.75360 125 ft 7 kts 291°
2026-05-06 12:12 51.27871 6.75323 125 ft 4 kts 332°
2026-05-06 12:12 51.27882 6.75314 125 ft 4 kts 332°
2026-05-06 12:12 51.27923 6.75281 124 ft 10 kts 337°
2026-05-06 12:12 51.28009 6.75307 125 ft 16 kts 40°
2026-05-06 12:13 51.28105 6.75500 127 ft 34 kts 53°
2026-05-06 12:13 51.28376 6.76069 129 ft 95 kts 52°
2026-05-06 12:13 51.28892 6.77151 130 ft 149 kts 53°
2026-05-06 12:13 51.29536 6.78507 621 ft 152 kts 53°
2026-05-06 12:14 51.30171 6.79854 1252 ft 152 kts 53°
2026-05-06 12:14 51.30838 6.81265 1689 ft 170 kts 53°
2026-05-06 12:14 51.31597 6.82868 2084 ft 193 kts 53°
2026-05-06 12:14 51.32457 6.84682 2489 ft 216 kts 53°
2026-05-06 12:15 51.33409 6.86691 2921 ft 238 kts 53°
2026-05-06 12:15 51.34457 6.88914 3439 ft 262 kts 49°
2026-05-06 12:15 51.35979 6.90588 4272 ft 272 kts 19°
2026-05-06 12:15 51.37860 6.91030 5253 ft 276 kts
2026-05-06 12:16 51.39784 6.91344 6219 ft 280 kts
2026-05-06 12:16 51.41723 6.91881 7114 ft 285 kts 10°
2026-05-06 12:16 51.43681 6.92501 7967 ft 289 kts 11°
2026-05-06 12:16 51.45665 6.93135 8789 ft 293 kts 11°
2026-05-06 12:17 51.47689 6.93752 9566 ft 298 kts 10°
2026-05-06 12:17 51.49755 6.94149 10299 ft 302 kts 359°
2026-05-06 12:17 51.51893 6.93810 10630 ft 321 kts 350°
2026-05-06 12:17 51.54157 6.93193 10936 ft 336 kts 349°
2026-05-06 12:18 51.56484 6.92523 11498 ft 342 kts 349°
2026-05-06 12:18 51.58842 6.91837 12091 ft 346 kts 349°
2026-05-06 12:18 51.61225 6.91149 12662 ft 350 kts 349°
2026-05-06 12:18 51.63630 6.90467 13209 ft 353 kts 349°
2026-05-06 12:19 51.66069 6.89783 13729 ft 357 kts 349°
2026-05-06 12:19 51.68526 6.89092 13956 ft 359 kts 349°
2026-05-06 12:19 51.70958 6.88404 14194 ft 361 kts 349°
2026-05-06 12:19 51.73455 6.87585 14682 ft 363 kts 347°
2026-05-06 12:20 51.75891 6.86676 15136 ft 365 kts 346°
2026-05-06 12:20 51.78399 6.85681 15585 ft 368 kts 346°
2026-05-06 12:20 51.80897 6.84673 16008 ft 371 kts 346°
2026-05-06 12:20 51.83412 6.83672 16418 ft 374 kts 346°
2026-05-06 12:21 51.85914 6.82695 16815 ft 376 kts 346°
2026-05-06 12:21 51.88470 6.81709 17201 ft 379 kts 346°
2026-05-06 12:21 51.91044 6.80727 17572 ft 381 kts 346°
2026-05-06 12:21 51.93642 6.79740 17936 ft 384 kts 346°
2026-05-06 12:22 51.96245 6.78748 18295 ft 386 kts 346°
2026-05-06 12:22 51.98854 6.77658 18627 ft 388 kts 341°
2026-05-06 12:22 52.01311 6.75824 18945 ft 390 kts 328°
2026-05-06 12:22 52.02953 6.73931 19178 ft 391 kts 319°
2026-05-06 12:23 52.03068 6.73772 19195 ft 392 kts 319°
2026-05-06 12:23 52.03178 6.73618 19212 ft 392 kts 318°
2026-05-06 12:23 52.05019 6.70358 19519 ft 393 kts 306°
2026-05-06 12:23 52.06604 6.66726 19817 ft 395 kts 304°
2026-05-06 12:24 52.08195 6.63072 20113 ft 397 kts 304°
2026-05-06 12:24 52.09796 6.59391 20395 ft 399 kts 305°
2026-05-06 12:24 52.11404 6.55694 20664 ft 401 kts 305°
2026-05-06 12:24 52.13020 6.51975 20923 ft 403 kts 305°
2026-05-06 12:25 52.14640 6.48239 21174 ft 405 kts 304°
2026-05-06 12:25 52.16266 6.44484 21414 ft 406 kts 304°
2026-05-06 12:25 52.17897 6.40712 21642 ft 408 kts 304°
2026-05-06 12:25 52.19536 6.36915 21863 ft 410 kts 304°
2026-05-06 12:26 52.21176 6.33105 22078 ft 411 kts 304°
2026-05-06 12:26 52.22823 6.29278 22289 ft 413 kts 304°
2026-05-06 12:26 52.24390 6.25352 22486 ft 414 kts 298°
2026-05-06 12:26 52.25527 6.21034 22687 ft 415 kts 289°
2026-05-06 12:27 52.26482 6.16573 22883 ft 417 kts 289°
2026-05-06 12:27 52.27443 6.12098 23077 ft 418 kts 289°
2026-05-06 12:27 52.28414 6.07614 23269 ft 420 kts 289°
2026-05-06 12:27 52.29391 6.03111 23459 ft 421 kts 289°
2026-05-06 12:28 52.30367 5.98599 23646 ft 423 kts 289°
2026-05-06 12:28 52.31343 5.94064 23823 ft 424 kts 289°
2026-05-06 12:28 52.32320 5.89499 23994 ft 425 kts 289°
2026-05-06 12:28 52.33298 5.84927 24156 ft 427 kts 289°
2026-05-06 12:29 52.34268 5.80397 24307 ft 428 kts 289°
2026-05-06 12:29 52.35249 5.75802 24453 ft 429 kts 289°
2026-05-06 12:29 52.36228 5.71190 24592 ft 430 kts 289°
2026-05-06 12:29 52.37203 5.66563 24723 ft 431 kts 289°
2026-05-06 12:30 52.38182 5.61915 24849 ft 432 kts 289°
2026-05-06 12:30 52.39161 5.57258 24974 ft 433 kts 289°
2026-05-06 12:30 52.40141 5.52596 25099 ft 433 kts 289°
2026-05-06 12:30 52.41120 5.47927 25224 ft 434 kts 288°
2026-05-06 12:31 52.42100 5.43249 25349 ft 434 kts 288°
2026-05-06 12:31 52.43080 5.38569 25474 ft 435 kts 288°
2026-05-06 12:31 52.44061 5.33880 25599 ft 435 kts 288°
2026-05-06 12:31 52.45040 5.29186 25723 ft 435 kts 288°
2026-05-06 12:32 52.46014 5.24494 25848 ft 435 kts 288°
2026-05-06 12:32 52.46985 5.19794 25973 ft 435 kts 288°
2026-05-06 12:32 52.47955 5.15088 26098 ft 435 kts 288°
2026-05-06 12:32 52.48923 5.10378 26223 ft 435 kts 288°
2026-05-06 12:33 52.49888 5.05678 26347 ft 435 kts 288°
2026-05-06 12:33 52.50855 5.00961 26472 ft 436 kts 288°
2026-05-06 12:33 52.51820 4.96250 26597 ft 436 kts 288°
2026-05-06 12:33 52.52781 4.91537 26721 ft 436 kts 288°
2026-05-06 12:34 52.53741 4.86813 26846 ft 436 kts 288°
2026-05-06 12:34 52.54717 4.82098 26971 ft 436 kts 289°
2026-05-06 12:34 52.55757 4.77415 27096 ft 436 kts 290°
2026-05-06 12:34 52.56838 4.72761 27221 ft 436 kts 291°
2026-05-06 12:35 52.57937 4.68111 27346 ft 436 kts 291°
2026-05-06 12:35 52.59031 4.63460 27471 ft 436 kts 290°
2026-05-06 12:35 52.60113 4.58803 27596 ft 436 kts 290°
2026-05-06 12:35 52.61182 4.54126 27721 ft 436 kts 290°
2026-05-06 12:36 52.62241 4.49449 27846 ft 436 kts 290°
2026-05-06 12:36 52.63294 4.44766 27971 ft 436 kts 290°
2026-05-06 12:36 52.64348 4.40079 28096 ft 436 kts 290°
2026-05-06 12:36 52.65044 4.36979 28178 ft 436 kts 290°
2026-05-06 12:37 52.66096 4.32282 28304 ft 436 kts 290°
2026-05-06 12:37 52.67146 4.27591 28428 ft 436 kts 290°
2026-05-06 12:37 52.68194 4.22904 28553 ft 436 kts 290°
2026-05-06 12:37 52.69243 4.18208 28678 ft 436 kts 290°
2026-05-06 12:38 52.70290 4.13514 28803 ft 436 kts 290°
2026-05-06 12:38 52.71334 4.08812 28928 ft 436 kts 290°
2026-05-06 12:38 52.72375 4.04108 29053 ft 436 kts 290°
2026-05-06 12:38 52.73412 3.99416 29178 ft 436 kts 289°
2026-05-06 12:39 52.74447 3.94713 29303 ft 436 kts 289°
2026-05-06 12:39 52.75481 3.90009 29428 ft 436 kts 289°
2026-05-06 12:39 52.76514 3.85308 29552 ft 436 kts 289°
2026-05-06 12:39 52.77547 3.80605 29677 ft 436 kts 289°
2026-05-06 12:40 52.78576 3.75901 29802 ft 435 kts 289°
2026-05-06 12:40 52.79601 3.71196 29927 ft 435 kts 289°
2026-05-06 12:40 52.80623 3.66493 30052 ft 435 kts 289°
2026-05-06 12:40 52.81645 3.61780 30177 ft 435 kts 289°
2026-05-06 12:41 52.82649 3.57138 30300 ft 435 kts 289°
2026-05-06 12:41 52.83666 3.52430 30425 ft 435 kts 289°
2026-05-06 12:41 52.84680 3.47724 30550 ft 435 kts 289°
2026-05-06 12:41 52.85693 3.43009 30675 ft 434 kts 289°
2026-05-06 12:42 52.86701 3.38300 30800 ft 434 kts 289°
2026-05-06 12:42 52.87718 3.33536 30926 ft 434 kts 289°
2026-05-06 12:42 52.88711 3.28889 31050 ft 434 kts 289°
2026-05-06 12:42 52.89716 3.24183 31175 ft 434 kts 289°
2026-05-06 12:43 52.90718 3.19477 31300 ft 433 kts 289°
2026-05-06 12:43 52.91680 3.14748 31426 ft 433 kts 285°
2026-05-06 12:43 52.92361 3.09880 31551 ft 432 kts 282°
2026-05-06 12:43 52.93001 3.05012 31676 ft 432 kts 282°
2026-05-06 12:44 52.93645 3.00144 31801 ft 432 kts 282°
2026-05-06 12:44 52.94289 2.95286 31956 ft 431 kts 282°
2026-05-06 12:44 52.95574 2.85522 32009 ft 436 kts 282°
2026-05-06 12:45 52.96857 2.75636 32009 ft 441 kts 282°
2026-05-06 12:46 52.98795 2.60597 32009 ft 447 kts 282°
2026-05-06 12:46 53.00094 2.50464 32009 ft 451 kts 282°
2026-05-06 12:47 53.01385 2.40300 32009 ft 454 kts 281°
2026-05-06 12:47 53.02678 2.30023 32123 ft 454 kts 281°
2026-05-06 12:47 53.03318 2.24895 32247 ft 452 kts 281°
2026-05-06 12:48 53.03954 2.19772 32371 ft 451 kts 281°
2026-05-06 12:48 53.04584 2.14677 32495 ft 450 kts 281°
2026-05-06 12:48 53.05211 2.09596 32619 ft 448 kts 281°
2026-05-06 12:48 53.05839 2.04525 32744 ft 447 kts 281°
2026-05-06 12:49 53.06464 1.99479 32868 ft 446 kts 281°
2026-05-06 12:49 53.07084 1.94425 32993 ft 444 kts 281°
2026-05-06 12:49 53.07699 1.89389 33117 ft 443 kts 281°
2026-05-06 12:49 53.08309 1.84370 33242 ft 442 kts 281°
2026-05-06 12:50 53.08913 1.79369 33366 ft 441 kts 281°
2026-05-06 12:50 53.09515 1.74368 33490 ft 440 kts 281°
2026-05-06 12:50 53.10115 1.69372 33615 ft 439 kts 281°
2026-05-06 12:50 53.10711 1.64387 33740 ft 439 kts 281°
2026-05-06 12:51 53.11305 1.59405 33864 ft 438 kts 281°
2026-05-06 12:51 53.11896 1.54448 33989 ft 437 kts 281°
2026-05-06 12:51 53.12484 1.49485 34113 ft 436 kts 281°
2026-05-06 12:51 53.13066 1.44540 34238 ft 435 kts 281°
2026-05-06 12:52 53.13643 1.39602 34363 ft 435 kts 281°
2026-05-06 12:52 53.14221 1.34653 34488 ft 434 kts 281°
2026-05-06 12:52 53.14793 1.29730 34613 ft 433 kts 281°
2026-05-06 12:52 53.15354 1.24881 34736 ft 432 kts 281°
2026-05-06 12:53 53.15920 1.19971 34861 ft 431 kts 281°
2026-05-06 12:53 53.16486 1.15066 34985 ft 431 kts 281°
2026-05-06 12:53 53.17048 1.10172 35110 ft 430 kts 280°
2026-05-06 12:53 53.17608 1.05286 35235 ft 429 kts 280°
2026-05-06 12:54 53.18164 1.00404 35360 ft 428 kts 280°
2026-05-06 12:54 53.18718 0.95520 35485 ft 427 kts 280°
2026-05-06 12:54 53.19271 0.90661 35610 ft 426 kts 280°
2026-05-06 12:54 53.19822 0.85812 35735 ft 426 kts 280°
2026-05-06 12:55 53.20369 0.80962 35860 ft 425 kts 280°
2026-05-06 12:55 53.20908 0.76130 35985 ft 424 kts 280°
2026-05-06 12:55 53.21444 0.71294 36109 ft 423 kts 280°
2026-05-06 12:55 53.21975 0.66473 36233 ft 422 kts 280°
2026-05-06 12:56 53.22504 0.61663 36358 ft 421 kts 280°
2026-05-06 12:56 53.23031 0.56862 36483 ft 420 kts 280°
2026-05-06 12:56 53.23554 0.52073 36607 ft 419 kts 280°
2026-05-06 12:56 53.24073 0.47290 36732 ft 418 kts 280°
2026-05-06 12:57 53.24590 0.42520 36857 ft 417 kts 280°
2026-05-06 12:57 53.25105 0.37772 36981 ft 416 kts 280°
2026-05-06 12:57 53.25621 0.33023 37106 ft 415 kts 280°
2026-05-06 12:57 53.26133 0.28284 37231 ft 414 kts 280°
2026-05-06 12:58 53.26639 0.23563 37355 ft 412 kts 279°
2026-05-06 12:58 53.27141 0.18853 37480 ft 411 kts 279°
2026-05-06 12:58 53.27638 0.14155 37604 ft 410 kts 279°
2026-05-06 12:58 53.28132 0.09478 37729 ft 408 kts 279°
2026-05-06 12:59 53.28626 0.04818 37864 ft 406 kts 279°
2026-05-06 12:59 53.29115 0.00192 37984 ft 405 kts 279°
2026-05-06 12:59 53.29602 -0.04451 38010 ft 406 kts 279°
2026-05-06 13:00 53.30566 -0.13780 38009 ft 409 kts 279°
2026-05-06 13:00 53.31527 -0.23185 38009 ft 412 kts 279°
2026-05-06 13:01 53.32500 -0.32662 38010 ft 415 kts 279°
2026-05-06 13:01 53.33471 -0.42228 38010 ft 419 kts 279°
2026-05-06 13:02 53.34434 -0.51785 38010 ft 422 kts 279°
2026-05-06 13:02 53.35364 -0.61137 38009 ft 424 kts 279°
2026-05-06 13:03 53.36330 -0.70911 38009 ft 427 kts 279°
2026-05-06 13:03 53.37293 -0.80739 38009 ft 429 kts 279°
2026-05-06 13:04 53.38255 -0.90624 38009 ft 431 kts 279°
2026-05-06 13:04 53.39215 -1.00577 38009 ft 433 kts 279°
2026-05-06 13:05 53.40168 -1.10541 38009 ft 435 kts 279°
2026-05-06 13:05 53.41116 -1.20538 38009 ft 437 kts 278°
2026-05-06 13:06 53.42061 -1.30608 38009 ft 439 kts 278°
2026-05-06 13:06 53.43001 -1.40701 38009 ft 441 kts 278°
2026-05-06 13:07 53.43917 -1.50796 38009 ft 442 kts 278°
2026-05-06 13:07 53.44838 -1.61022 38009 ft 444 kts 278°
2026-05-06 13:08 53.45764 -1.71230 38009 ft 445 kts 278°
2026-05-06 13:08 53.46686 -1.81513 38009 ft 446 kts 278°
2026-05-06 13:09 53.47599 -1.91836 38009 ft 448 kts 278°
2026-05-06 13:09 53.48504 -2.02200 38009 ft 449 kts 278°
2026-05-06 13:10 53.49399 -2.12558 38009 ft 450 kts 278°
2026-05-06 13:10 53.50282 -2.22922 38009 ft 451 kts 278°
2026-05-06 13:11 53.51164 -2.33356 38009 ft 452 kts 278°
2026-05-06 13:11 53.52039 -2.43823 38009 ft 453 kts 277°
2026-05-06 13:12 53.52913 -2.54322 38009 ft 454 kts 277°
2026-05-06 13:12 53.53782 -2.64834 38009 ft 454 kts 277°
2026-05-06 13:13 53.54629 -2.75301 38009 ft 455 kts 277°
2026-05-06 13:13 53.55469 -2.85869 38009 ft 456 kts 277°
2026-05-06 13:14 53.56302 -2.96451 38009 ft 456 kts 277°
2026-05-06 13:14 53.57128 -3.07039 38009 ft 457 kts 277°
2026-05-06 13:15 53.57953 -3.17637 38009 ft 458 kts 277°
2026-05-06 13:15 53.58773 -3.28262 38009 ft 458 kts 277°
2026-05-06 13:16 53.59579 -3.38922 38009 ft 459 kts 277°
2026-05-06 13:16 53.60371 -3.49581 38009 ft 459 kts 277°
2026-05-06 13:17 53.61154 -3.60251 38009 ft 459 kts 277°
2026-05-06 13:17 53.62641 -3.70689 38011 ft 460 kts 292°
2026-05-06 13:18 53.65027 -3.80608 38009 ft 460 kts 291°
2026-05-06 13:18 53.67431 -3.90659 37031 ft 471 kts 291°
2026-05-06 13:18 53.68673 -3.95889 35613 ft 489 kts 291°
2026-05-06 13:19 53.69941 -4.01248 34401 ft 493 kts 291°
2026-05-06 13:19 53.71151 -4.06639 33376 ft 489 kts 286°
2026-05-06 13:19 53.71789 -4.12211 32496 ft 481 kts 274°
2026-05-06 13:19 53.72013 -4.17817 31613 ft 474 kts 273°
2026-05-06 13:20 53.72221 -4.23330 30752 ft 467 kts 273°
2026-05-06 13:20 53.72424 -4.28760 29916 ft 460 kts 273°
2026-05-06 13:20 53.72621 -4.34100 29098 ft 453 kts 273°
2026-05-06 13:20 53.72814 -4.39353 28395 ft 442 kts 273°
2026-05-06 13:21 53.73004 -4.44513 27530 ft 438 kts 273°
2026-05-06 13:21 53.73190 -4.49611 26732 ft 432 kts 273°
2026-05-06 13:21 53.73369 -4.54602 26241 ft 420 kts 273°
2026-05-06 13:21 53.73539 -4.59444 25800 ft 407 kts 273°
2026-05-06 13:22 53.73699 -4.64157 25367 ft 396 kts 273°
2026-05-06 13:22 53.73852 -4.68727 24927 ft 384 kts 273°
2026-05-06 13:22 53.73999 -4.73165 24498 ft 373 kts 273°
2026-05-06 13:22 53.74139 -4.77497 24076 ft 363 kts 272°
2026-05-06 13:23 53.74274 -4.81702 23661 ft 354 kts 272°
2026-05-06 13:23 53.74407 -4.85815 23256 ft 349 kts 272°
2026-05-06 13:23 53.74540 -4.89898 22847 ft 347 kts 273°
2026-05-06 13:23 53.74673 -4.93959 22442 ft 345 kts 273°
2026-05-06 13:24 53.74804 -4.97986 22039 ft 342 kts 272°
2026-05-06 13:24 53.74931 -5.01987 21638 ft 339 kts 272°
2026-05-06 13:24 53.75054 -5.05949 21241 ft 337 kts 272°
2026-05-06 13:24 53.75136 -5.08561 20977 ft 335 kts 272°
2026-05-06 13:25 53.75188 -5.12480 20582 ft 332 kts 265°
2026-05-06 13:25 53.74817 -5.16308 20189 ft 329 kts 254°
2026-05-06 13:25 53.74093 -5.19965 19799 ft 327 kts 250°
2026-05-06 13:25 53.73355 -5.23591 19416 ft 326 kts 251°
2026-05-06 13:26 53.72626 -5.27211 19022 ft 325 kts 251°
2026-05-06 13:26 53.71899 -5.30824 18633 ft 324 kts 251°
2026-05-06 13:26 53.71175 -5.34412 18249 ft 322 kts 251°
2026-05-06 13:26 53.70450 -5.37983 17863 ft 321 kts 251°
2026-05-06 13:27 53.69723 -5.41535 17480 ft 319 kts 251°
2026-05-06 13:27 53.68998 -5.45067 17100 ft 318 kts 251°
2026-05-06 13:27 53.68288 -5.48535 16726 ft 316 kts 251°
2026-05-06 13:27 53.67715 -5.52094 16350 ft 314 kts 257°
2026-05-06 13:28 53.67253 -5.55691 15976 ft 313 kts 257°
2026-05-06 13:28 53.66792 -5.59263 15605 ft 311 kts 257°
2026-05-06 13:28 53.66330 -5.62810 15237 ft 309 kts 257°
2026-05-06 13:28 53.65868 -5.66338 14870 ft 307 kts 257°
2026-05-06 13:29 53.65404 -5.69856 14503 ft 306 kts 257°
2026-05-06 13:29 53.64943 -5.73338 14140 ft 304 kts 257°
2026-05-06 13:29 53.64484 -5.76809 13777 ft 302 kts 257°
2026-05-06 13:29 53.64025 -5.80259 13416 ft 301 kts 257°
2026-05-06 13:30 53.63566 -5.83685 13055 ft 299 kts 257°
2026-05-06 13:30 53.63112 -5.87089 12697 ft 297 kts 257°
2026-05-06 13:30 53.62662 -5.90480 12340 ft 296 kts 257°
2026-05-06 13:30 53.62213 -5.93849 11984 ft 294 kts 257°
2026-05-06 13:31 53.61766 -5.97201 11634 ft 292 kts 257°
2026-05-06 13:31 53.61319 -6.00531 11284 ft 291 kts 257°
2026-05-06 13:31 53.60874 -6.03840 10932 ft 289 kts 257°
2026-05-06 13:31 53.60426 -6.07130 10582 ft 287 kts 257°
2026-05-06 13:32 53.59978 -6.10401 10233 ft 286 kts 257°
2026-05-06 13:32 53.59536 -6.13649 9884 ft 285 kts 257°
2026-05-06 13:32 53.59097 -6.16890 9537 ft 283 kts 257°
2026-05-06 13:32 53.58660 -6.20118 9190 ft 281 kts 257°
2026-05-06 13:33 53.58226 -6.23319 8846 ft 280 kts 257°
2026-05-06 13:33 53.57797 -6.26464 8506 ft 279 kts 257°
2026-05-06 13:33 53.57361 -6.29630 8258 ft 274 kts 257°
2026-05-06 13:33 53.56940 -6.32699 8129 ft 265 kts 257°
2026-05-06 13:34 53.56530 -6.35673 7983 ft 257 kts 256°
2026-05-06 13:34 53.56208 -6.38599 7832 ft 253 kts 263°
2026-05-06 13:34 53.56012 -6.41534 7579 ft 252 kts 263°
2026-05-06 13:34 53.55806 -6.44454 7295 ft 251 kts 263°
2026-05-06 13:35 53.55599 -6.47355 7006 ft 249 kts 263°
2026-05-06 13:35 53.55389 -6.50248 6714 ft 248 kts 263°
2026-05-06 13:35 53.55181 -6.53103 6427 ft 247 kts 262°
2026-05-06 13:35 53.54972 -6.55958 6140 ft 245 kts 263°
2026-05-06 13:36 53.54774 -6.58692 5865 ft 244 kts 263°
2026-05-06 13:36 53.54568 -6.61520 5580 ft 243 kts 262°
2026-05-06 13:36 53.54123 -6.64186 5302 ft 241 kts 240°
2026-05-06 13:36 53.53021 -6.66250 5013 ft 239 kts 213°
2026-05-06 13:37 53.51486 -6.67245 4716 ft 238 kts 187°
2026-05-06 13:37 53.49876 -6.67481 4624 ft 227 kts 185°
2026-05-06 13:37 53.48340 -6.67716 4524 ft 217 kts 185°
2026-05-06 13:37 53.46864 -6.67562 4422 ft 214 kts 157°
2026-05-06 13:38 53.45811 -6.65923 4258 ft 214 kts 113°
2026-05-06 13:38 53.45563 -6.63454 4076 ft 214 kts 93°
2026-05-06 13:38 53.45458 -6.60963 3974 ft 215 kts 95°
2026-05-06 13:38 53.45336 -6.58521 3756 ft 211 kts 95°
2026-05-06 13:39 53.45209 -6.56093 3491 ft 208 kts 95°
2026-05-06 13:39 53.45084 -6.53693 3222 ft 206 kts 95°
2026-05-06 13:39 53.44959 -6.51307 2954 ft 205 kts 95°
2026-05-06 13:39 53.44834 -6.48937 2681 ft 203 kts 95°
2026-05-06 13:40 53.44710 -6.46577 2417 ft 203 kts 95°
2026-05-06 13:40 53.44587 -6.44267 2168 ft 193 kts 95°
2026-05-06 13:40 53.44472 -6.42103 1897 ft 179 kts 95°
2026-05-06 13:40 53.44366 -6.40117 1677 ft 162 kts 95°
2026-05-06 13:41 53.44271 -6.38359 1468 ft 143 kts 95°
2026-05-06 13:41 53.44184 -6.36743 1282 ft 136 kts 95°
2026-05-06 13:41 53.44100 -6.35180 1107 ft 133 kts 95°
2026-05-06 13:41 53.44018 -6.33642 936 ft 132 kts 95°
2026-05-06 13:42 53.43936 -6.32112 748 ft 131 kts 95°
2026-05-06 13:42 53.43853 -6.30588 587 ft 131 kts 95°
2026-05-06 13:42 53.43774 -6.29068 381 ft 130 kts 95°
2026-05-06 13:42 53.43691 -6.27562 214 ft 124 kts 96°
2026-05-06 13:43 53.43625 -6.26401 213 ft 62 kts 95°
2026-05-06 13:43 53.43602 -6.25955 211 ft 32 kts 94°
2026-05-06 13:43 53.43547 -6.25789 210 ft 18 kts 154°
2026-05-06 13:43 53.43429 -6.25704 211 ft 20 kts 156°
2026-05-06 13:44 53.43296 -6.25606 211 ft 22 kts 156°
2026-05-06 13:44 53.43144 -6.25494 211 ft 25 kts 156°
2026-05-06 13:44 53.43011 -6.25401 211 ft 16 kts 156°
2026-05-06 13:44 53.42903 -6.25320 211 ft 19 kts 156°
2026-05-06 13:45 53.42806 -6.25240 211 ft 11 kts 140°
2026-05-06 13:45 53.42739 -6.25002 211 ft 13 kts 147°
2026-05-06 13:45 53.42681 -6.24934 211 ft 10 kts 144°
2026-05-06 13:46 53.42669 -6.24851 211 ft 8 kts 51°
2026-05-06 13:46 53.42706 -6.24812 211 ft 2 kts 356°
2026-05-06 13:46 53.42730 -6.24814 211 ft 2 kts 356°
2026-05-06 13:46 53.42741 -6.24815 211 ft 2 kts 356°
2026-05-06 13:47 53.42751 -6.24816 211 ft 0 kts 357°
2026-05-06 13:47 53.42753 -6.24816 211 ft 1 kts 357°
2026-05-06 13:47 53.42757 -6.24817 211 ft 0 kts 357°